sat.trackr.live / text

‹ back to catalog

STARLINK-4501

NORAD 53553 · 2022-101AC

PAYLOAD ACTIVE UNKNOWN

§ Identity

Operator
Country
US
Launch date
2022-08-19
Launch site
AFETR
Launch vehicle
Mass (kg)
RCS (m²)

Purposes: comms

External: N2YO · Heavens-Above · Gunter

§ Orbital elements

Epoch: 2026-05-25T02:24:04.363200Z

Period
95.44 min
Inclination
53.2128°
Eccentricity
0.0001347
Mean motion
15.08837231 rev/d
Perigee alt
538.8 km
Apogee alt
540.7 km
Semi-major
6,917.9 km
B*
5.9760e-5
RAAN
80.9752°
Arg perigee
67.2693°
Mean anomaly
292.8441°
Rev number
20,850

§ Raw data

STARLINK-45011 53553U 22101AC  26145.10005050  .00000663  00000+0  59760-4 0  99912 53553  53.2128  80.9752 0001347  67.2693 292.8441 15.08837231208506

JSON: /api/v1/satellites/53553 · /tle

For live sub-satellite position, see the globe view (requires WebGL).

§ Visibility from observer

Set your observer location to see the next 7 days of passes ≥ 10°. The values pass through the URL so the page stays shareable.

No JS? Fill the form by hand. The geolocation button needs JavaScript.